(41) Daphne
ephemeris date magn radius delta ra dec elong phase
Today14 Jun 202612.32.171 AU2.328 AU10h12m+10°54'68.5°25.8°
Opposition12 Aug 202711.22.615 AU1.626 AU21h10m+00°20'164.1°6.1°
(41) Daphne - 2026-06-14
astro.vanbuitenen.nl


 
-1 year
-1 month
-1 day
Now
+1 day
+1 month
+1 year

The interactive orbit chart above shows the body's path through the solar system and its position at the given date. Green and blue lines are shown perpendicular to the ecliptic plane: Green if the path is above the ecliptic plane, blue if it is below. (Left-click and drag to rotate the view; Right-click and drag to move the view; Use scroll wheel to zoom in our out.)

The orbital elements of Daphne are:

            e (Eccentricity)                : 0.2702470
            a (Semimajor axis)              : 2.7672288
            i (Inclination)                 : 15.73360
            Ω (Longitude of ascending node) : 177.60313
            ω (Argument of perihelion)      : 47.01764
            M (Mean anomaly)                : 331.15288
            Epoch                           : 2026 Jun 09

            L (Longitude of perihelion)     : 223.52830
            B (Latitude of perihelion)      : 11.44192
            P (Orbital period in years)     : 4.60            
        

The light curve chart below shows the estimated development of the minor planet's magnitude.


The all-sky chart below shows the path of the minor planet over the same period as the light curve. The current position is marked yellow.





The following chart shows the path of the minor planet in the next few days. The field of view is optimized for (~10x50) binoculars and finderscopes.




Ephemerides:
Date       Time       RA (2000)    DEC (2000)    delta   radius  elong  phase   PA    magn
2026-06-14 00:00 UT   10 12 08.4   +10 54 41     2.328    2.171   68.5   25.8   111   12.3 
2026-06-14 01:54 UT   10 12 16.2   +10 54 24     2.328    2.171   68.4   25.8   111   12.3 
2026-06-15 00:00 UT   10 13 47.2   +10 50 57     2.336    2.169   67.9   25.7   111   12.3 
2026-06-16 00:00 UT   10 15 26.6   +10 47 04     2.345    2.167   67.3   25.6   111   12.3 
2026-06-17 00:00 UT   10 17 06.6   +10 43 04     2.353    2.165   66.8   25.6   111   12.3 
2026-06-18 00:00 UT   10 18 47.1   +10 38 56     2.361    2.162   66.2   25.5   111   12.3 
2026-06-19 00:00 UT   10 20 28.2   +10 34 40     2.370    2.160   65.7   25.4   111   12.3 
2026-06-20 00:00 UT   10 22 09.8   +10 30 17     2.378    2.158   65.2   25.3   111   12.3 
2026-06-21 00:00 UT   10 23 51.9   +10 25 46     2.386    2.156   64.6   25.2   111   12.3 
2026-06-22 00:00 UT   10 25 34.6   +10 21 08     2.395    2.154   64.1   25.1   111   12.3 
2026-06-23 00:00 UT   10 27 17.7   +10 16 23     2.403    2.152   63.6   25.0   111   12.3 
2026-06-24 00:00 UT   10 29 01.3   +10 11 31     2.411    2.150   63.0   24.9   111   12.3 
2026-06-25 00:00 UT   10 30 45.4   +10 06 31     2.419    2.148   62.5   24.8   111   12.3 
2026-06-26 00:00 UT   10 32 30.0   +10 01 25     2.427    2.146   62.0   24.7   111   12.3 
2026-06-27 00:00 UT   10 34 15.1   +09 56 11     2.435    2.144   61.5   24.6   111   12.3 
2026-06-28 00:00 UT   10 36 00.6   +09 50 51     2.443    2.142   60.9   24.5   111   12.3 
2026-06-29 00:00 UT   10 37 46.5   +09 45 24     2.450    2.140   60.4   24.4   111   12.3 
2026-06-30 00:00 UT   10 39 32.9   +09 39 50     2.458    2.138   59.9   24.3   111   12.3 
2026-07-01 00:00 UT   10 41 19.7   +09 34 10     2.466    2.136   59.4   24.2   111   12.3 
2026-07-02 00:00 UT   10 43 06.9   +09 28 23     2.474    2.134   58.9   24.1   111   12.3 
2026-07-03 00:00 UT   10 44 54.6   +09 22 30     2.481    2.132   58.4   24.0   111   12.3 


    Terminology:
            
    delta:  distance between minor planet and earth in AU
    radius: distance between minor planet and sun in AU
    magn:   magnitude (brightness) estimate    
    ra:     right ascension in hours (24h = 360deg)
    dec:    declination in degrees
    elong:  elongation in degrees (angle sun-earth-minor planet)    
    phase:  phase angle in degrees (angle sun-minor planet-earth)        
    AU:     Astronomical Unit (mean distance between earth and sun: 149597870.7 km
    

Orbital elements provided by the MPC (Minor Planet Center).
Calculations by a modified version of AAPlus, a C# implementation of the AA+ project by PJ Naughter from the algorithms presented in the book "Astronomical Algorithms" by Jean Meeus.
NGC2000 dso catalog and star labels from VizieR as provided by the Strasbourg astronomical Data Center.
Tycho2 catalog from the ESO archive.